• Processing (Info)

  • MPEC 2023-W36 : 2023 WT

    The following Minor Planet Electronic Circular may be linked-to from your own Web pages, but must not otherwise be redistributed electronically.

    A form allowing access to any MPEC is at the bottom of this page.


    Read MPEC 2023-W35 Read MPEC 2023-W37


    M.P.E.C. 2023-W36                             Issued 2023 November 20, 00:26 UT
    
         The Minor Planet Electronic Circulars contain information on unusual
             minor planets, routine data on comets and natural satellites,
             and occasional editorial announcements.  They are published
        on behalf of Division F of the International Astronomical Union by the
              Minor Planet Center, Smithsonian Astrophysical Observatory,
                              Cambridge, MA 02138, U.S.A.
    			  
                 Prepared using the Tamkin Foundation Computer Network
    
                                  MPC@CFA.HARVARD.EDU
                URL https://www.minorplanetcenter.net/    ISSN 1523-6714
    
                                     2023 WT                                 
    
    
    Observations:
         K23W00T* C2023 11 18.50002807 49 30.876+26 01 48.62         20.17wXEW036F52
         K23W00T  C2023 11 18.51290607 49 05.915+26 01 26.49         19.75wXEW036F52
         K23W00T  C2023 11 18.53874307 48 15.885+26 00 40.29         19.91wXEW036F52
         K23W00T  C2023 11 18.64118707 44 59.471+25 57 10.67         19.89GVEW036F51
         K23W00T KC2023 11 18.95195607 36 03.48 +25 43 51.0          19.9 GVEW036L01
         K23W00T KC2023 11 18.95381807 36 00.22 +25 43 46.7          19.8 GVEW036L01
         K23W00T KC2023 11 18.95555007 35 57.20 +25 43 43.8          19.2 GVEW036L01
         K23W00T KC2023 11 18.95727907 35 54.21 +25 43 39.7          19.6 GVEW036L01
         K23W00T KC2023 11 18.95900607 35 51.25 +25 43 36.3          19.8 GVEW036L01
         K23W00T KC2023 11 18.99374007 34 51.833+25 42 41.11               XEW036L34
         K23W00T KC2023 11 18.99655 07 34 46.75 +25 42 17.1          19.7 GVEW036104
         K23W00T KC2023 11 19.00402 07 34 33.71 +25 42 01.7          19.7 GXEW036K83
         K23W00T KC2023 11 19.00428 07 34 33.35 +25 42 00.9          19.3 GVEW036104
         K23W00T KC2023 11 19.00813 07 34 26.67 +25 41 51.8          19.8 GVEW036104
         K23W00T KC2023 11 19.00866 07 34 25.74 +25 41 51.3          19.5 GXEW036K83
         K23W00T KC2023 11 19.04161507 33 28.925+25 40 55.49         19.5 GXEW036L34
         K23W00T KC2023 11 19.09236 07 32 02.09 +25 38 32.6                VEW036204
         K23W00T KC2023 11 19.10193 07 31 45.74 +25 38 09.7          19.6 GVEW036204
         K23W00T KC2023 11 19.35090207 25 06.78 +25 27 49.4                VEW036H21
         K23W00T KC2023 11 19.35369807 25 02.24 +25 27 42.7          20.4 GVEW036H21
         K23W00T KC2023 11 19.35649307 24 57.70 +25 27 35.6          19.9 GVEW036H21
         K23W00T KC2023 11 19.35929907 24 53.11 +25 27 28.2                VEW036H21
         K23W00T KC2023 11 19.96681 07 10 07.82 +24 59 26.9          19.7 VZEW036M63
         K23W00T KC2023 11 19.98001 07 09 49.21 +24 58 51.8                ZEW036M63
         K23W00T KC2023 11 19.98661 07 09 39.87 +24 58 34.8          19.6 VZEW036M63
    
    Observer details:
    104 San Marcello Pistoiese.  Observers P. Bacci, M. Maestripieri, M. D.
        Grazia.  Measurers P. Bacci, L. Tesi, G. Fagioli.  0.60-m F4 Reflector +
        CCD.
    204 Schiaparelli Observatory.  Observers L. Buzzi, G. Galli.  0.84-m f/3.5
        reflector + CCD.
    F51 Pan-STARRS 1, Haleakala.  Observers J. Herman, T. Lowe, P. Minguez, A.
        Schultz, I. Smith.  Measurers K. Chambers, T. de Boer, J. Fairlamb, H.
        Gao, M. Huber, C.-C. Lin, E. Magnier, Y. Ramanjooloo, R. Wainscoat, R.
        Weryk.  1.8-m Ritchey-Chretien + CCD.
    F52 Pan-STARRS 2, Haleakala.  Observers J. Herman, T. Lowe, P. Minguez, A.
        Schultz, I. Smith.  Measurers K. Chambers, T. de Boer, J. Fairlamb, H.
        Gao, M. Huber, C.-C. Lin, E. Magnier, Y. Ramanjooloo, R. Wainscoat, R.
        Weryk.  1.8-m Ritchey-Chretien + CCD.
    H21 Astronomical Research Observatory, Westfield.  Observer R. Holmes.
        Measurers T. Linder, R. Holmes, L. Horn.  0.76-m f/3.0 astrograph + CCD.
    K83 Beppe Forti Astronomical Observatory, Montelupo.  Observers M. Tombelli,
        A. Mazzanti, G. Interrante, A. Squilloni, L. Grazzini, T. Bitossi, E.
        Venticinque.  Measurers M. Tombelli, F. Bernardi.  0.40-m f/8 Ritchey-
        Chretien + CCD.
    L01 Visnjan Observatory, Tican.  Observers K. Korlevic, D. Pujagic, V. Dobos.
        Measurers K. Korlevic, D. Pujagic.  1.0-m f/2.9 reflector + CCD.
    L34 Galhassin Robotic Telescope, Isnello.  Observer A. Nastasi.  0.40-m f/3.8
        400mm Reflector + CCD.
    M63 RPF Observatory, Gagliano del Capo.  Observer D. Licchelli.  0.30-m f/5.3
        reflector + CCD.
    
    Orbital elements:
    2023 WT                                                  Earth MOID = 0.0076 AU
    Epoch 2023 Sept. 13.0 TT = JDT 2460200.5                MPC                     
    M 351.69868              (2000.0)            P               Q                  
    n   0.45806516     Peri.  104.55698     +0.96921357     +0.23996083             
    a   1.6666761      Node   241.58448     -0.24307913     +0.89682963             
    e   0.5375045      Incl.    3.59645     -0.03921207     +0.37163882             
    P   2.15           H   24.42          G   0.15           U   8                  
    Residuals in seconds of arc
    231118 F52  0.0   0.0     231118 L34  0.1+  0.5-    231119 H21  0.3+  0.0
    231118 F52  0.1+  0.0     231118 104  0.6+  0.0     231119 H21  0.2+  0.4+
    231118 F52  0.1-  0.0     231119 K83  1.3-  0.2-    231119 H21  0.2+  0.4+
    231118 F51  0.1+  0.0     231119 104  0.0   0.6+    231119 H21  0.4-  0.2+
    231118 L01  0.4+  0.0     231119 104  0.4-  0.1-    231119 M63  0.8-  0.4-
    231118 L01  0.1-  0.4-    231119 K83  0.6-  0.4-    231119 M63  0.4-  0.9-
    231118 L01  0.3-  0.3+    231119 L34  0.4+  0.2-    231119 M63  0.7-  0.5-
    231118 L01  0.3-  0.2-    231119 204  0.1+  0.3-
    231118 L01  0.2+  0.1+    231119 204  0.1-  0.0
    
    Ephemeris:
    2023 WT                  a,e,i = 1.67, 0.54, 4                   q = 0.7708
    Date    TT    R. A. (2000) Decl.     Delta      r    Elong.  Phase     V
    2023 10 21    15 35 42.2 -09 32 53   0.2053  0.8210    28.4   144.7    28.1
    ...
    2023 11 05    14 44 08.8 -01 55 50   0.08273 0.9115    13.6   165.2    32.1
    ...
    2023 11 13    11 52 45.6 +17 28 20   0.03906 0.9709    60.0   118.0    22.0
    ...
    2023 11 19    07 34 35.6 +25 43 21   0.05113 1.0185   124.7    52.9    19.9
    2023 11 20    07 09 17.7 +24 58 48   0.05667 1.0266   131.3    46.3    20.0
    2023 11 21    06 48 50.4 +24 10 49   0.06269 1.0347   136.9    40.7    20.1
    ...
    2023 11 27    05 42 06.3 +20 23 43   0.1043  1.0844   158.1    19.8    20.7
    ...
    2023 12 05    05 08 21.3 +17 58 26   0.1675  1.1519   172.7     6.3    21.3
    ...
    2023 12 20    04 46 22.0 +16 33 01   0.3043  1.2789   163.8    12.4    23.1
    
    A. U. Tomatic                (C) Copyright 2023 MPC           M.P.E.C. 2023-W36
    


    Read MPEC 2023-W35 Read MPEC 2023-W37


    MPEC number:

    Enter an MPEC number in one of the following forms:

    • 1997-B01 (the full form)
    • J97B01 (the packed version of the full form)
    • B01 (the abbreviated form)